Palm Springs, CA

11:55 PM PDT on March 23, 2017 (GMT -0700)
Palm Springs International

Weather History for KPSP - January, 2012

Change the Weather History Date:

Wednesday, January 25, 2012

  Actual Average Record
Temperature  
Mean Temperature 68 °F 58 °F  
Max Temperature 83 °F 70 °F 90 °F (1948)
Min Temperature 53 °F 47 °F 28 °F (1932)
Degree Days  
Heating Degree Days 0 7  
Month to date heating degree days 115 199  
Since 1 July heating degree days 542 585  
Cooling Degree Days 3 0  
Month to date cooling degree days 8 0  
Year to date cooling degree days 8 0  
Growing Degree Days 18 (Base 50)    
Moisture  
Dew Point 31 °F    
Average Humidity 27    
Maximum Humidity 38    
Minimum Humidity 15    
Precipitation  
Precipitation 0.00 in 0.02 in 2.17 in (1969)
Month to date precipitation 0.03 0.92  
Year to date precipitation 0.03 0.92  
Since 1 July precipitation 1.51  
Snow  
Snow 0.00 in - - ()
Month to date snowfall 0.0  
Year to date snowfall 0.0  
Snow Depth 0.00 in    
Sea Level Pressure  
Sea Level Pressure 30.18 in    
Wind  
Wind Speed 5 mph (WNW)    
Max Wind Speed 21 mph    
Max Gust Speed 28 mph    
Visibility 10 miles    
Events Rain    
T = Trace of Precipitation, MM = Missing Value Source: NWS Daily Summary

Daily Weather History Graph

Daily Weather History Graph

Search for Another Location

Airport or City:

Trip Planner

Search our weather history database for the weather conditions in past years. The results will help you decide how hot, cold, wet, or windy it might be!

Date:

Astronomy

Jan. 25, 2012 Rise Set
Actual Time 6:47 AM PST 5:09 PM PST
Civil Twilight 6:20 AM PST 5:36 PM PST
Nautical Twilight 5:50 AM PST 6:06 PM PST
Astronomical Twilight 5:20 AM PST 6:36 PM PST
Moon 7:58 AM PST (1/25) 7:56 PM PST (1/25)
Length of Visible Light 11h 15m
Length of Day
10h 22m
Waxing Crescent, 7% of the Moon is Illuminated
Jan 25
Waxing Crescent
Jan 30
First Quarter
Feb 7
Full
Feb 14
Last Quarter
Feb 21
New

Hourly Weather History & Observations

Time (PST) Temp. Dew Point Humidity Pressure Visibility Wind Dir Wind Speed Gust Speed Precip Events Conditions
12:53 AM 63.0 °F 17.1 °F 17% 30.23 in 10.0 mi SSW 6.9 mph - N/A   Clear
1:53 AM 64.9 °F 17.1 °F 16% 30.22 in 10.0 mi SSW 10.4 mph - N/A   Clear
2:53 AM 60.8 °F 19.4 °F 20% 30.21 in 10.0 mi SW 3.5 mph - N/A   Clear
3:53 AM 61.0 °F 27.0 °F 27% 30.21 in 10.0 mi SSW 5.8 mph - N/A   Clear
4:53 AM 59.0 °F 28.9 °F 32% 30.22 in 10.0 mi Variable 4.6 mph - N/A   Clear
5:53 AM 61.0 °F 30.9 °F 32% 30.22 in 10.0 mi North 4.6 mph - N/A   Clear
6:53 AM 55.0 °F 30.0 °F 38% 30.25 in 10.0 mi SSW 4.6 mph - N/A   Clear
7:53 AM 60.1 °F 33.1 °F 36% 30.26 in 10.0 mi Calm Calm - N/A   Clear
8:53 AM 68.0 °F 34.0 °F 28% 30.27 in 10.0 mi Calm Calm - N/A   Clear
9:53 AM 73.9 °F 34.0 °F 23% 30.26 in 10.0 mi SSE 6.9 mph - N/A   Scattered Clouds
11:53 AM 80.6 °F 32.0 °F 17% 30.21 in 10.0 mi NNE 10.4 mph - N/A Rain Light Rain
1:53 PM 82.0 °F 32.0 °F 16% 30.14 in 10.0 mi NE 4.6 mph - N/A   Clear
2:53 PM 82.0 °F 32.0 °F 16% 30.12 in 10.0 mi ENE 6.9 mph - 0.00 in Rain Light Rain
3:53 PM 81.0 °F 33.1 °F 18% 30.12 in 10.0 mi Variable 6.9 mph - 0.00 in   Clear
4:53 PM 77.0 °F 33.1 °F 20% 30.11 in 10.0 mi SW 8.1 mph - N/A   Clear
5:53 PM 75.0 °F 34.0 °F 22% 30.12 in 10.0 mi WNW 8.1 mph - N/A   Clear
6:53 PM 73.4 °F 35.6 °F 25% 30.14 in 10.0 mi West 3.5 mph - N/A   Clear
7:53 PM 71.6 °F 33.8 °F 25% 30.15 in 10.0 mi WNW 4.6 mph - N/A   Clear
8:53 PM 64.0 °F 36.0 °F 35% 30.15 in 10.0 mi North 5.8 mph - N/A   Clear
9:53 PM 61.0 °F 33.1 °F 35% 30.15 in 10.0 mi NNW 8.1 mph - N/A   Clear
10:53 PM 60.1 °F 34.0 °F 38% 30.14 in 10.0 mi NNW 8.1 mph - N/A   Clear
11:53 PM 61.0 °F 33.1 °F 35% 30.14 in 10.0 mi NNW 6.9 mph - N/A   Clear